Regional Weather Roundup
Issued by NWS

Home | Current Version | Previous Version | Graphics & Text | Print | Product List | Glossary On
Versions: 1 2 3 4 5 6 7 8 9 10 11 12 13 14 15 16 17 18 19 20 21 22 23 24 25 26 27 28 29 30 31 32 33 34 35 36 37 38 39 40 41 42 43 44 45 46 47 48 49 50
544
ASUS43 KLOT 261808
RWRIL

ILLINOIS REGIONAL WEATHER ROUNDUP
NATIONAL WEATHER SERVICE CHICAGO/ROMEOVILLE IL
100 PM CDT MON SEP 26 2016

NOTE: "FAIR" INDICATES FEW OR NO CLOUDS BELOW 12,000 FEET WITH NO
SIGNIFICANT WEATHER AND/OR OBSTRUCTIONS TO VISIBILITY.

* THESE STATIONS ARE NOT UNDER NWS QUALITY CONTROL. THEY ALSO MAY NOT
  REPORT WEATHER SUCH AS PRECIPITATION OR FOG.

ILZ001-002-007-009-015-016-024-261900-
NORTHWEST ILLINOIS

CITY           SKY/WX    TMP DP  RH WIND       PRES   REMARKS
MOLINE         SUNNY     69  34  27 W18G33    30.05F
6HR MIN TEMP:  52; 6HR MAX TEMP:  70;

STERLING*      SUNNY     68  38  33 W20G28    30.02F
SAVANNA*       SUNNY     67  35  31 W18G24    30.01F
$$

ILZ003-004-008-010-011-017-018-261900-
NORTH CENTRAL ILLINOIS

CITY           SKY/WX    TMP DP  RH WIND       PRES   REMARKS
ROCKFORD       MOSUNNY   67  38  34 W23G39    30.00F
6HR MIN TEMP:  54; 6HR MAX TEMP:  67;

FREEPORT*      SUNNY     65  38  37 W20G29    30.01S
ROCHELLE*      SUNNY     65  38  36 W24G31    30.01S
DE KALB*       SUNNY     66  39  37 W22G29    29.99F
$$

ILZ005-006-012>014-019>023-261900-
NORTHEAST ILLINOIS

CITY           SKY/WX    TMP DP  RH WIND       PRES   REMARKS
CHICAGO-OHARE  MOSUNNY   67  35  30 W23G30    29.96F
6HR MIN TEMP:  58; 6HR MAX TEMP:  67;

CHICAGO-MIDWAY MOSUNNY   69  35  28 W21G30    29.97F
6HR MIN TEMP:  60; 6HR MAX TEMP:  70;

AURORA         SUNNY     69  35  28 W25G32    29.99F
6HR MIN TEMP:  56; 6HR MAX TEMP:  70;

LANSING*       SUNNY     69  42  38 W22G29    29.99F
JOLIET*        SUNNY     70  37  29 W17G26    30.00F
WAUKEGAN       SUNNY     65  38  36 W12G26    29.92F
6HR MIN TEMP:  57; 6HR MAX TEMP:  67;

DUPAGE AIRPORT SUNNY     68  36  30 W21G32    29.97F
6HR MIN TEMP:  56; 6HR MAX TEMP:  68;

KANKAKEE*      SUNNY     69  35  27 W16G30    30.02F
WHEELING       SUNNY     66  35  31 W17G26    29.96F
6HR MIN TEMP:  58; 6HR MAX TEMP:  67;

MORRIS*        SUNNY     70  35  28 W17G25    30.00S
ROMEOVILLE*    SUNNY     69  43  39 W20G26    29.99F
NORTHERLY ISL    N/A     67  33  28 W12         N/A
$$

LMZ740>746-261900-
SOUTHERN LAKE MICHIGAN

STATION/POSITION SKY/WX   TEMP    WIND        PRES    VSBY  WAVE
                          AIR SEA DIR/SP/G                  HT/PER
                          (F)     (DEG/KT/KT) (MB)    (MI)  (FT/S)
SOUTHERN BUOY              63 71  250/ 21/ 29 1012.2F         5/ 5
WILMETTE HARBOR            64 63  290/ 17/ 23   N/A           3/ 3
HARRISON CRIB              64     270/ 23/ 28   N/A
BURNHAM HARBOR             67     260/  7/ 20   N/A
CALUMET HARBOR             67     250/ 11/ 22 1014.7F
BURNS HARBOR               65     270/ 21/ 25 1015.2F
MICHIGAN CITY              63     230/ 25/ 29   N/A
MICHIGAN CITY 6N           65 66  270/ 17/ 25   N/A           5/ 5
ST. JOSEPH                 65 65  270/ 17/ 25 1014.3F         6/ 6
$$

ILZ025>027-034>036-040-047-049-050-058-095>099-261900-
WEST-CENTRAL ILLINOIS

CITY           SKY/WX    TMP DP  RH WIND       PRES   REMARKS
QUINCY         SUNNY     71  36  27 NW20      30.15F
GALESBURG*     SUNNY     69  37  30 W18G24    30.09S
MACOMB*        SUNNY     70  34  26 W17G24    30.13F
JACKSONVILLE*  SUNNY     72  35  25 W13G20    30.13F
PITTSFIELD*    SUNNY     71  35  27 W13G21    30.15F
$$

ILZ028>032-037-038-041>044-048-051>054-059>061-261900-
CENTRAL ILLINOIS

CITY           SKY/WX    TMP DP  RH WIND       PRES   REMARKS
PONTIAC        SUNNY     71  36  27 W18G32    30.05S
BLOOMINGTON    SUNNY     69  39  33 W15G24    30.08F
DECATUR        SUNNY     72  37  28 W20G25    30.10F
PEORIA         SUNNY     70  34  26 W13G24    30.08F
6HR MIN TEMP:  55; 6HR MAX TEMP:  70;

LACON*         SUNNY     70  31  24 NW13G23   30.04F
SPRINGFIELD    SUNNY     74  36  25 W16G22    30.12F
6HR MIN TEMP:  58; 6HR MAX TEMP:  74;

TAYLORVILLE    SUNNY     71  37  29 NW10G18   30.12F
6HR MIN TEMP:  57; 6HR MAX TEMP:  72;

$$

ILZ033-039-045-046-055>057-062-063-261900-
EAST-CENTRAL ILLINOIS

CITY           SKY/WX    TMP DP  RH WIND       PRES   REMARKS
CHAMPAIGN      SUNNY     71  37  28 W14G26    30.08F
RANTOUL*       SUNNY     72  38  28 W16G25    30.06F
MATTOON        SUNNY     70  37  29 W10       30.09F
PARIS*         SUNNY     71  41  33 W6        30.09F
$$

ILZ079-100>102-261900-
SOUTHWEST ILLINOIS

CITY           SKY/WX    TMP DP  RH WIND       PRES   REMARKS
ALTON          SUNNY     72  39  30 W12       30.15F
BELLEVILLE     SUNNY     73  45  36 NW10G18   30.13F
CAHOKIA*       SUNNY     74  37  26 NW13G22   30.15F
SPARTA*        SUNNY     69  51  51 W7        30.16F
$$

ILZ064>066-069>071-074>076-080>082-084>086-088>090-092>094-261900-
SOUTH-CENTRAL ILLINOIS

CITY           SKY/WX    TMP DP  RH WIND       PRES   REMARKS
CARBONDALE     CLOUDY    69  53  56 NW9       30.15S
6HR MIN TEMP:  58; 6HR MAX TEMP:  70; 6HR PCP:  0.03;

CAIRO*         CLOUDY    68  55  62 N9        30.15F
EFFINGHAM*     SUNNY     72  44  36 NW10G18   30.13F
MARION         PTSUNNY   68  55  64 N12       30.16S
MT. VERNON     MOSUNNY   70  48  46 NW3       30.14F
CENTRALIA*     SUNNY     71  50  47 NW6       30.13S
SALEM*         SUNNY     72  46  39 W12       30.13F
METROPOLIS*    CLOUDY    69  53  57 CALM      30.15F
$$

ILZ067-068-072-073-078-083-087-091-261900-
SOUTHEAST ILLINOIS

CITY           SKY/WX    TMP DP  RH WIND       PRES   REMARKS
LAWRENCEVILLE  CLOUDY    69  48  47 NW12      30.11F
FLORA*         CLOUDY    72  45  37 W7G17     30.12F
FAIRFIELD*     MOSUNNY   69  47  45 NW3       30.12F
HARRISBURG*    PTSUNNY   70  53  56 N8        30.14F
ROBINSON*      CLOUDY    68  47  46 NW10      30.12F
CARMI*         CLOUDY    71  53  53 NW10G17   30.13S
$$

ABBREVIATIONS USED IN REMARKS
   TC - TEMPERATURE IN CELSIUS
  WCI - WIND CHILL INDEX
   HX - HEAT INDEX
  VSB - VISIBILITY
$$





USA.gov is the U.S. government's official web portal to all federal, state and local government web resources and services.